UNISAT-6
1 40012U 14033C   16136.73889702  .00000554  00000-0  90909-4 0  9994
2 40012  97.9061  25.8113 0059977 130.1855 230.4626 14.73317039102410
BUGSAT-1 (TITA)
1 40014U 14033E   16136.81818053  .00000199  00000-0  24082-4 0  9990
2 40014  97.9528  50.4299 0031294 200.7053 159.2899 14.94293603103857
TABLETSAT-AURORA
1 40017U 14033H   16136.72034534  .00001258  00000-0  12843-3 0  9995
2 40017  97.9474  47.7495 0023051 198.0483 161.9922 14.92295547103691
DUCHIFAT-1              
1 40021U 14033M   16136.69729260  .00001218  00000-0  13453-3 0  9997
2 40021  97.9338  43.1629 0013452 163.2599 196.9064 14.89254026103429
NANOSATC-BR1
1 40024U 14033Q   16136.73255041  .00001001  00000-0  11317-3 0  9993
2 40024  97.9314  42.6378 0012747 162.6821 197.4833 14.88670975103400
QB50P1                  
1 40025U 14033R   16136.71386577  .00000758  00000-0  88645-4 0  9998
2 40025  97.9309  42.1795 0012903 164.3851 195.7766 14.87978367103376
QB50P2                  
1 40032U 14033Y   16136.71191941  .00000799  00000-0  94089-4 0  9999
2 40032  97.9296  41.6667 0012458 158.2549 201.9198 14.87543601103347
ANTELSAT                
1 40034U 14033AA  16136.90407509  .00000629  00000-0  10217-3 0  9994
2 40034  97.9077  26.0339 0060279 128.2863 232.3786 14.73359648102429
POLYITAN-1
1 40042U 14033AJ  16136.71354852  .00000948  00000-0  11046-3 0  9999
2 40042  97.9381  42.0508 0015495 152.8126 207.3904 14.87530782103326
TIGRISAT                
1 40043U 14033AK  16136.67975106  .00000414  00000-0  69155-4 0  9999
2 40043  97.9062  26.3431 0061491 131.3302 229.3221 14.73734111102285
AISAT
1 40054U 14034B   16136.83442339  .00001132  00000-0  17003-3 0  9999
2 40054  98.1939 224.6252 0012066 234.0059 126.0032 14.76505488101076
VELOX 1
1 40057U 14034E   16136.81036956  .00000895  00000-0  13565-3 0  9998
2 40057  98.1933 225.1254 0009665 248.5464 111.4706 14.76672130101101
METEOR-M 2
1 40069U 14037A   16136.72223414 -.00000027  00000-0  79366-5 0  9992
2 40069  98.7094 192.4352 0004457 287.2654  72.8029 14.20629958 96120
UKUBE-1                 
1 40074U 14037F   16136.75852524  .00000906  00000-0  11855-3 0  9993
2 40074  98.3341 228.4141 0003328 248.5954 111.4899 14.83039491100264
ARSAT 1
1 40272U 14062B   16136.34455341 -.00000275  00000-0  00000+0 0  9998
2 40272   0.0209  73.9750 0001454 335.0818 236.6842  1.00269558  5935
CHUBUSAT-1              
1 40300U 14070C   16136.75666899  .00001995  00000-0  95994-4 0  9996
2 40300  97.4254 217.3839 0022827  54.6085  60.6335 15.19732260 84407
FIREBIRD 3
1 40377U 15003B   16136.84780912  .00005452  00000-0  24999-3 0  9998
2 40377  99.0829 237.5500 0144173 236.2904 122.4510 15.12179245 70894
FIREBIRD 4
1 40378U 15003C   16136.84438746  .00005588  00000-0  25582-3 0  9993
2 40378  99.0830 237.5592 0144439 236.2573 122.4820 15.12186285 70891
GRIFEX
1 40379U 15003D   16136.80955116  .00004314  00000-0  20653-3 0  9995
2 40379  99.0843 236.7717 0148028 239.7182 118.9325 15.10511687 70849
EXOCUBE
1 40380U 15003E   16136.84863662  .00003182  00000-0  15764-3 0  9994
2 40380  99.0871 236.3497 0150802 240.8002 117.8067 15.09371423 70818
NO-84
1 40654U 15025D   16133.49902101  .00012176  00000-0  26839-3 0 01161
2 40654 054.9994 215.9820 0210165 345.3889 014.0850 15.24420873018590
NO-83
1 40655U 15025E   16133.32461101  .00017229  00000-0  34776-3 0 01268
2 40655 054.9886 211.5597 0194698 346.8899 012.6466 15.28853482018613
DEORBITSAIL             
1 40719U 15032E   16136.19642503  .00001125  00000-0  17257-3 0  9993
2 40719  98.0210  28.1121 0016586 348.3381  11.7442 14.75495057 45627
S-CUBE                  
1 40898U 98067GY  16136.41575151  .00046916  00000-0  34260-3 0  9999
2 40898  51.6342 206.3754 0004058  69.0522 291.0911 15.72754091 37565
XW-2A                   
1 40903U 15049E   16136.88679579  .00003813  00000-0  11021-3 0  9994
2 40903  97.4471 151.6495 0014110 249.0704 231.4992 15.36181694 36591
XW-2C                   
1 40906U 15049H   16136.86430824  .00001382  00000-0  80631-4 0  9996
2 40906  97.4532 144.6411 0016566 143.8980 335.6338 15.13490997 36119
XW-2D                   
1 40907U 15049J   16136.86632212  .00001535  00000-0  89067-4 0  9994
2 40907  97.4500 144.5331 0016143 142.4337 337.0138 15.13526209 36117
LILACSAT 2              
1 40908U 15049K   16136.71943005  .00000738  00000-0  45998-4 0  9993
2 40908  97.4602 144.4207 0017445 138.6762 332.0604 15.12480574 36078
XW-2E
1 40909U 15049L   16133.72582606  .00003633  00000-0  20098-3 0  9998
2 40909  97.4523 141.7763 0015259 156.6153 292.0429 15.14390578 35652
XW-2F                   
1 40910U 15049M   16136.77115876  .00002574  00000-0  14519-3 0  9993
2 40910  97.4534 144.5911 0017027 141.2472 305.0766 15.13936190 35992

XW-2B                   
1 40911U 15049N   16136.86551106  .00001513  00000-0  87875-4 0  9992
2 40911  97.4548 144.6838 0015821 142.0269 337.5879 15.13511331 36015
TIANWANG 1C (TW-1C)     
1 40926U 15051B   16136.76267666  .00009387  00000-0  27010-3 0  9996
2 40926  97.2776 174.0412 0015345 157.9945 307.0659 15.35876255 35788
TIANWANG 1B (TW-1B)     
1 40927U 15051C   16136.76417051  .00008363  00000-0  24717-3 0  9996
2 40927  97.2867 174.1774 0014446 164.8157 286.6792 15.35082054 35770
TIANWANG 1A (TW-1A)     
1 40928U 15051D   16136.90861288  .00004567  00000-0  14539-3 0  9991
2 40928  97.2729 173.5263 0014381 174.0984 309.3479 15.32977180 35778
LAPAN-A2 (IO-86)        
1 40931U 15052B   16136.58755555  .00000831  00000-0  26906-4 0  9991
2 40931   5.9979 187.5645 0013759  15.7191 344.3321 14.76458907 34102
ARSAT 2
1 40941U 15054B   16134.58150734 -.00000244  00000-0  00000+0 0  9991
2 40941   0.0333  93.0305 0001242 329.4295 297.5491  1.00272134  2359
GOMX 3
1 40949U 98067HA  16136.69013931  .00058158  00000-0  36846-3 0  9992
2 40949  51.6330 202.2059 0003901  63.9655 296.1746 15.75957880 34932
LQSAT
1 40958U 15057A   16136.77007024  .00000213  00000-0  41144-4 0  9992
2 40958  98.0152 212.0882 0016716 258.2490 101.6838 14.72860487 32613
AO-85
1 40967U 15058D   16124.23807745  .00000393  00000-0  59562-4 0 01173
2 40967 064.7795 022.1316 0208714 219.3847 139.1944 14.74952774016645
ATHENOXAT 1             
1 41168U 15077C   16136.03143726  .00004477  00000-0  22861-3 0  9997

2 41168  14.9852 194.3933 0012916 267.1407 304.0253 15.09811981 22733
VELOX 2
1 41171U 15077F   16136.29460193  .00003102  00000-0  15204-3 0  9996
2 41171  14.9901 194.2311 0009028 258.5827 101.3453 15.08613030 22768
AGGIESAT 4              
1 41313U 98067HP  16135.62542294  .00014565  00000-0  19254-3 0  9997
2 41313  51.6485 223.6726 0004547  90.0315 270.1181 15.58589617 16494
BEVO 2                  
1 41314U 98067HQ  16136.20146859  .00021654  00000-0  26318-3 0  9996
2 41314  51.6460 219.9764 0003439  94.8742 265.2643 15.60498810 16397
CHUBUSAT-2              
1 41338U 16012B   16136.36635739  .00000795  00000-0  56560-4 0  9995
2 41338  31.0024 118.1601 0013908  81.9610 278.2604 14.99357461 13221
CHUBUSAT-3              
1 41339U 16012C   16136.35248022  .00000765  00000-0  53878-4 0  9996
2 41339  31.0087 118.0721 0013520  89.0833 271.1353 14.99588804 13195
HORYU-IV                
1 41340U 16012D   16136.33281012  .00001233  00000-0  89997-4 0  9994
2 41340  31.0045 117.8805 0014301  91.9619 268.2651 14.99973501 13216
OUFTI-1                 
1 41458U 16025C   16136.01753517  .00002557  00000-0  14899-3 0  9995
2 41458  98.2192 144.6025 0176520 178.0342 182.1615 15.00829182  2803
E-ST@R-II               
1 41459U 16025D   16136.55069465  .00001827  00000-0  10765-3 0  9994
2 41459  98.2177 145.1695 0177028 176.0772 184.1872 15.00840614  2883
AAUSAT 4
1 41460U 16025E   16136.55039685  .00003208  00000-0  18493-3 0  9998
2 41460  98.2163 145.1714 0177006 176.0612 184.2075 15.00892799  2888
AIST-2D                 
1 41465U 16026B   16136.76033536  .00002979  00000-0  10792-3 0  9994
2 41465  97.2748  42.5140 0011822 189.7168 255.2073 15.29098216  2682
SAMSAT-218D             
1 41466U 16026C   16136.68705748  .00006881  00000-0  24297-3 0  9998
2 41466  97.2724  42.4509 0010906 193.8518 226.6099 15.29477139  2676
2016-029A               
1 41473U 16029A   16136.83618569 -.00000053  00000-0  00000+0 0  9998
2 41473  98.0686 189.0882 0019829 228.7347 131.2173 14.75906077   101
LUSEX PRELIMINARY
1 99990U 16028C   16052.54071880  .00001915  00000-0  10803-3 0  9991
2 99990  97.4528 126.8938 0013509 210.8286 268.9900 15.14284354-14945
